| time (UTC) | temp C | wind direction | speed KPH | gust KPH | rain 1hr cm | rain 24hr cm | rain mn cm | humidity % | barometer mb |
| 20260506023919 | 8 | 61 | 4.8 | 12.9 | 0.00 | 0.00 | 0.00 | 89 | 1008.8 |
| 20260506023420 | 8 | 105 | 6.4 | 16.1 | 0.00 | 0.00 | 0.00 | 89 | 1008.8 |
| 20260506022919 | 8 | 53 | 4.8 | 16.1 | 0.00 | 0.00 | 0.00 | 89 | 1008.9 |
| 20260506022419 | 8 | 76 | 4.8 | 16.1 | 0.00 | 0.00 | 0.00 | 89 | 1008.9 |
| 20260506021919 | 8 | 40 | 4.8 | 16.1 | 0.00 | 0.00 | 0.00 | 89 | 1008.8 |
| 20260506021418 | 8 | 52 | 4.8 | 9.7 | 0.00 | 0.00 | 0.00 | 89 | 1008.9 |
| 20260506020917 | 9 | 42 | 4.8 | 12.9 | 0.00 | 0.00 | 0.00 | 89 | 1008.9 |
| 20260506020414 | 9 | 59 | 6.4 | 12.9 | 0.00 | 0.00 | 0.00 | 89 | 1008.9 |
| 20260506015913 | 9 | 28 | 4.8 | 9.7 | 0.00 | 0.00 | 0.00 | 89 | 1008.9 |
| 20260506015412 | 9 | 25 | 4.8 | 9.7 | 0.00 | 0.00 | 0.00 | 88 | 1008.9 |
| 20260506014912 | 9 | 71 | 4.8 | 9.7 | 0.00 | 0.00 | 0.00 | 88 | 1008.9 |
| 20260506014411 | 9 | 38 | 3.2 | 8.0 | 0.00 | 0.00 | 0.00 | 88 | 1008.9 |
| 20260506013910 | 9 | 45 | 3.2 | 9.7 | 0.00 | 0.00 | 0.00 | 88 | 1009.0 |
| 20260506013407 | 9 | 22 | 4.8 | 9.7 | 0.00 | 0.00 | 0.00 | 88 | 1008.9 |
| 20260506012907 | 9 | 30 | 4.8 | 11.3 | 0.00 | 0.00 | 0.00 | 88 | 1009.0 |
| 20260506012408 | 9 | 55 | 6.4 | 16.1 | 0.00 | 0.00 | 0.00 | 88 | 1009.0 |
| 20260506012129 | 9 | 37 | 8.0 | 16.1 | 0.00 | 0.00 | 0.00 | 88 | 1009.1 |
| 20260506011359 | 9 | 111 | 8.0 | 19.3 | 0.00 | 0.00 | 0.00 | 88 | 1009.1 |
| 20260506010859 | 9 | 20 | 8.0 | 19.3 | 0.00 | 0.00 | 0.00 | 87 | 1009.0 |
| 20260506010359 | 9 | 66 | 8.0 | 17.7 | 0.00 | 0.00 | 0.00 | 87 | 1009.1 |
| 20260506005900 | 10 | 355 | 9.7 | 17.7 | 0.00 | 0.00 | 0.00 | 87 | 1009.0 |
| 20260506005359 | 10 | 52 | 9.7 | 22.5 | 0.00 | 0.00 | 0.00 | 87 | 1009.0 |
| 20260506004900 | 10 | 49 | 9.7 | 22.5 | 0.00 | 0.00 | 0.00 | 86 | 1009.0 |
| 20260506004359 | 10 | 59 | 9.7 | 19.3 | 0.00 | 0.00 | 0.00 | 86 | 1009.1 |
| 20260506003900 | 10 | 39 | 8.0 | 19.3 | 0.00 | 0.00 | 0.00 | 86 | 1009.2 |
| 20260506003400 | 10 | 52 | 8.0 | 16.1 | 0.00 | 0.00 | 0.00 | 86 | 1009.3 |
| 20260506002900 | 10 | 36 | 8.0 | 16.1 | 0.00 | 0.00 | 0.00 | 86 | 1009.4 |
| 20260506002400 | 10 | 71 | 8.0 | 16.1 | 0.00 | 0.00 | 0.00 | 86 | 1009.5 |
| 20260506001900 | 10 | 70 | 6.4 | 17.7 | 0.00 | 0.00 | 0.00 | 86 | 1009.5 |
| 20260506001359 | 10 | 67 | 6.4 | 20.9 | 0.00 | 0.00 | 0.00 | 85 | 1009.5 |
| 20260506000858 | 10 | 28 | 8.0 | 20.9 | 0.00 | 0.00 | 0.00 | 85 | 1009.5 |
| 20260506000358 | 10 | 33 | 8.0 | 16.1 | 0.00 | 0.00 | 0.00 | 85 | 1009.5 |
| 20260505235857 | 10 | 17 | 6.4 | 16.1 | 0.00 | 0.00 | 0.00 | 84 | 1009.5 |
| 20260505235357 | 10 | 46 | 8.0 | 19.3 | 0.00 | 0.00 | 0.00 | 84 | 1009.5 |
| 20260505234857 | 10 | 24 | 11.3 | 22.5 | 0.00 | 0.00 | 0.00 | 84 | 1009.4 |
| 20260505234357 | 10 | 32 | 11.3 | 22.5 | 0.00 | 0.00 | 0.00 | 84 | 1009.4 |
| 20260505233857 | 10 | 69 | 11.3 | 20.9 | 0.00 | 0.00 | 0.00 | 84 | 1009.5 |
| 20260505233357 | 10 | 32 | 11.3 | 20.9 | 0.00 | 0.00 | 0.00 | 84 | 1009.5 |
| 20260505232857 | 10 | 38 | 11.3 | 19.3 | 0.00 | 0.00 | 0.00 | 84 | 1009.6 |
| 20260505232357 | 10 | 32 | 11.3 | 24.1 | 0.00 | 0.00 | 0.00 | 84 | 1009.7 |
| 20260505231857 | 10 | 27 | 12.9 | 24.1 | 0.00 | 0.00 | 0.00 | 84 | 1009.6 |
| 20260505231357 | 9 | 16 | 12.9 | 22.5 | 0.00 | 0.00 | 0.00 | 84 | 1009.6 |
| 20260505230857 | 9 | 42 | 14.5 | 25.7 | 0.00 | 0.00 | 0.00 | 85 | 1009.8 |
| 20260505230358 | 9 | 49 | 14.5 | 27.4 | 0.00 | 0.00 | 0.00 | 85 | 1009.7 |
| 20260505225857 | 9 | 48 | 14.5 | 27.4 | 0.00 | 0.00 | 0.00 | 85 | 1009.7 |
| 20260505225355 | 9 | 53 | 14.5 | 29.0 | 0.00 | 0.00 | 0.00 | 85 | 1009.7 |
| 20260505224848 | 9 | 57 | 14.5 | 29.0 | 0.00 | 0.00 | 0.00 | 85 | 1009.8 |
| 20260505224350 | 9 | 27 | 14.5 | 25.7 | 0.00 | 0.00 | 0.00 | 85 | 1009.9 |
| 20260505223849 | 9 | 47 | 12.9 | 25.7 | 0.00 | 0.00 | 0.00 | 85 | 1009.9 |
| 20260505223350 | 9 | 51 | 11.3 | 22.5 | 0.00 | 0.00 | 0.00 | 85 | 1010.0 |
| 20260505222849 | 9 | 60 | 9.7 | 19.3 | 0.00 | 0.00 | 0.00 | 85 | 1010.2 |
| 20260505222349 | 9 | 41 | 9.7 | 17.7 | 0.00 | 0.00 | 0.00 | 85 | 1010.1 |
| 20260505221850 | 9 | 19 | 11.3 | 20.9 | 0.00 | 0.00 | 0.00 | 85 | 1010.2 |
| 20260505221349 | 9 | 49 | 11.3 | 22.5 | 0.00 | 0.00 | 0.00 | 85 | 1010.3 |
| 20260505220849 | 9 | 40 | 11.3 | 24.1 | 0.00 | 0.00 | 0.00 | 85 | 1010.4 |
| 20260505220608 | 9 | 35 | 12.9 | 25.7 | 0.00 | 0.00 | 0.00 | 85 | 1010.4 |
| 20260505215848 | 9 | 26 | 12.9 | 25.7 | 0.00 | 0.00 | 0.00 | 85 | 1010.4 |
| 20260505215349 | 9 | 40 | 12.9 | 22.5 | 0.00 | 0.00 | 0.00 | 85 | 1010.5 |
| 20260505214849 | 9 | 34 | 11.3 | 22.5 | 0.00 | 0.00 | 0.00 | 85 | 1010.5 |
| 20260505214608 | 9 | 39 | 11.3 | 19.3 | 0.00 | 0.00 | 0.00 | 85 | 1010.6 |
| 20260505213849 | 9 | 32 | 11.3 | 19.3 | 0.00 | 0.00 | 0.00 | 85 | 1010.6 |
| 20260505213349 | 9 | 53 | 9.7 | 20.9 | 0.00 | 0.00 | 0.00 | 85 | 1010.7 |
| 20260505212848 | 9 | 42 | 8.0 | 20.9 | 0.00 | 0.00 | 0.00 | 85 | 1010.6 |
| 20260505212345 | 9 | 39 | 8.0 | 17.7 | 0.00 | 0.00 | 0.00 | 85 | 1010.6 |
| 20260505211841 | 9 | 49 | 6.4 | 17.7 | 0.00 | 0.00 | 0.00 | 85 | 1010.6 |
| 20260505211340 | 9 | 54 | 8.0 | 24.1 | 0.00 | 0.00 | 0.00 | 84 | 1010.6 |
| 20260505210832 | 9 | 61 | 9.7 | 24.1 | 0.00 | 0.00 | 0.00 | 84 | 1010.6 |
| 20260505210333 | 9 | 0 | 8.0 | 20.9 | 0.00 | 0.00 | 0.00 | 84 | 1010.6 |
| 20260505205833 | 9 | 51 | 8.0 | 20.9 | 0.00 | 0.00 | 0.00 | 84 | 1010.7 |
| 20260505205642 | 9 | 51 | 8.0 | 22.5 | 0.00 | 0.00 | 0.00 | 84 | 1010.7 |
| 20260505205546 | 9 | 49 | 8.0 | 22.5 | 0.00 | 0.00 | 0.00 | 83 | 1010.7 |
| 20260505204330 | 9 | 50 | 9.7 | 17.7 | 0.00 | 0.00 | 0.00 | 83 | 1010.7 |
| 20260505203829 | 9 | 32 | 8.0 | 16.1 | 0.00 | 0.00 | 0.00 | 83 | 1010.7 |
| 20260505203551 | 9 | 355 | 6.4 | 17.7 | 0.00 | 0.00 | 0.00 | 83 | 1010.7 |
| 20260505202825 | 9 | 83 | 6.4 | 17.7 | 0.00 | 0.00 | 0.00 | 83 | 1010.7 |
| 20260505202325 | 9 | 42 | 8.0 | 22.5 | 0.00 | 0.00 | 0.00 | 83 | 1010.7 |
| 20260505201825 | 9 | 74 | 9.7 | 22.5 | 0.00 | 0.00 | 0.00 | 83 | 1010.8 |
| 20260505201322 | 9 | 53 | 11.3 | 20.9 | 0.00 | 0.00 | 0.00 | 83 | 1010.7 |
| 20260505201040 | 9 | 43 | 11.3 | 20.9 | 0.00 | 0.00 | 0.00 | 84 | 1010.7 |
| 20260505200322 | 9 | 40 | 8.0 | 17.7 | 0.00 | 0.00 | 0.00 | 84 | 1010.7 |
| 20260505195823 | 9 | 43 | 8.0 | 16.1 | 0.00 | 0.00 | 0.00 | 84 | 1010.7 |
| 20260505195321 | 9 | 53 | 8.0 | 19.3 | 0.00 | 0.00 | 0.00 | 84 | 1010.7 |
| 20260505194821 | 9 | 27 | 9.7 | 22.5 | 0.00 | 0.00 | 0.00 | 84 | 1010.7 |
| 20260505194319 | 9 | 348 | 11.3 | 22.5 | 0.00 | 0.00 | 0.00 | 84 | 1010.7 |
| 20260505193816 | 9 | 44 | 8.0 | 20.9 | 0.00 | 0.00 | 0.00 | 84 | 1010.7 |
| 20260505193308 | 9 | 28 | 9.7 | 20.9 | 0.00 | 0.00 | 0.00 | 85 | 1010.5 |
| 20260505192810 | 9 | 65 | 11.3 | 20.9 | 0.00 | 0.00 | 0.00 | 85 | 1010.6 |
| 20260505192305 | 9 | 32 | 11.3 | 20.9 | 0.00 | 0.00 | 0.00 | 85 | 1010.6 |
| 20260505191804 | 10 | 40 | 9.7 | 20.9 | 0.00 | 0.00 | 0.00 | 85 | 1010.7 |
| 20260505191522 | 10 | 38 | 11.3 | 20.9 | 0.00 | 0.00 | 0.00 | 85 | 1010.6 |
| 20260505190802 | 10 | 26 | 11.3 | 24.1 | 0.00 | 0.00 | 0.00 | 85 | 1010.6 |
| 20260505190255 | 10 | 34 | 9.7 | 24.1 | 0.00 | 0.00 | 0.00 | 85 | 1010.5 |
| 20260505185750 | 10 | 32 | 12.9 | 22.5 | 0.00 | 0.00 | 0.00 | 85 | 1010.5 |
| 20260505185250 | 10 | 38 | 12.9 | 22.5 | 0.00 | 0.00 | 0.00 | 85 | 1010.5 |
| 20260505184750 | 10 | 49 | 12.9 | 25.7 | 0.00 | 0.00 | 0.00 | 84 | 1010.4 |
| 20260505184249 | 10 | 38 | 12.9 | 25.7 | 0.00 | 0.00 | 0.00 | 84 | 1010.5 |
| 20260505183750 | 10 | 40 | 9.7 | 25.7 | 0.00 | 0.00 | 0.00 | 85 | 1010.5 |
| 20260505183248 | 10 | 57 | 9.7 | 22.5 | 0.00 | 0.00 | 0.00 | 85 | 1010.4 |
| 20260505182747 | 10 | 35 | 11.3 | 22.5 | 0.00 | 0.00 | 0.00 | 84 | 1010.4 |
| 20260505182246 | 10 | 69 | 11.3 | 20.9 | 0.00 | 0.00 | 0.00 | 84 | 1010.4 |
| 20260505181747 | 10 | 43 | 11.3 | 20.9 | 0.00 | 0.00 | 0.00 | 84 | 1010.3 |
| 20260505181246 | 10 | 32 | 11.3 | 22.5 | 0.00 | 0.00 | 0.00 | 84 | 1010.5 |
| 20260505180741 | 10 | 21 | 12.9 | 25.7 | 0.00 | 0.00 | 0.00 | 84 | 1010.5 |
| 20260505180241 | 10 | 32 | 12.9 | 29.0 | 0.00 | 0.00 | 0.00 | 83 | 1010.4 |
| 20260505175741 | 10 | 61 | 11.3 | 29.0 | 0.00 | 0.00 | 0.00 | 83 | 1010.5 |
| 20260505175241 | 10 | 33 | 9.7 | 20.9 | 0.00 | 0.00 | 0.00 | 83 | 1010.5 |
| 20260505174950 | 10 | 37 | 11.3 | 25.7 | 0.00 | 0.00 | 0.00 | 83 | 1010.4 |
| 20260505174233 | 10 | 25 | 12.9 | 25.7 | 0.00 | 0.00 | 0.00 | 83 | 1010.3 |
| 20260505173733 | 10 | 57 | 11.3 | 24.1 | 0.00 | 0.00 | 0.00 | 83 | 1010.4 |
| 20260505173233 | 10 | 70 | 11.3 | 24.1 | 0.00 | 0.00 | 0.00 | 83 | 1010.4 |
| 20260505172733 | 10 | 95 | 11.3 | 25.7 | 0.00 | 0.00 | 0.00 | 83 | 1010.5 |
| 20260505172452 | 10 | 30 | 11.3 | 25.7 | 0.00 | 0.00 | 0.00 | 83 | 1010.4 |
| 20260505171730 | 10 | 45 | 9.7 | 24.1 | 0.00 | 0.00 | 0.00 | 83 | 1010.4 |
| 20260505171229 | 10 | 34 | 11.3 | 24.1 | 0.00 | 0.00 | 0.00 | 83 | 1010.5 |
| 20260505170729 | 10 | 36 | 12.9 | 27.4 | 0.00 | 0.00 | 0.00 | 83 | 1010.5 |
| 20260505170229 | 10 | 36 | 14.5 | 27.4 | 0.00 | 0.00 | 0.00 | 83 | 1010.5 |
| 20260505165956 | 10 | 41 | 14.5 | 27.4 | 0.00 | 0.00 | 0.00 | 83 | 1010.5 |
| 20260505165222 | 10 | 46 | 12.9 | 27.4 | 0.00 | 0.00 | 0.00 | 83 | 1010.6 |
| 20260505164721 | 10 | 51 | 12.9 | 24.1 | 0.00 | 0.00 | 0.00 | 83 | 1010.7 |
| 20260505164221 | 10 | 35 | 12.9 | 22.5 | 0.00 | 0.00 | 0.00 | 83 | 1010.7 |
| 20260505163723 | 10 | 38 | 12.9 | 25.7 | 0.00 | 0.00 | 0.00 | 83 | 1010.7 |
| 20260505163219 | 10 | 50 | 14.5 | 25.7 | 0.00 | 0.00 | 0.00 | 82 | 1010.8 |
| 20260505162941 | 10 | 34 | 14.5 | 25.7 | 0.00 | 0.00 | 0.00 | 82 | 1010.7 |
| 20260505162217 | 10 | 26 | 14.5 | 24.1 | 0.00 | 0.00 | 0.00 | 82 | 1010.7 |
| 20260505161717 | 10 | 38 | 14.5 | 27.4 | 0.00 | 0.00 | 0.00 | 82 | 1010.8 |
| 20260505161217 | 10 | 57 | 12.9 | 27.4 | 0.00 | 0.00 | 0.00 | 82 | 1010.7 |
| 20260505160717 | 10 | 53 | 12.9 | 22.5 | 0.00 | 0.00 | 0.00 | 83 | 1010.7 |
| 20260505160215 | 10 | 30 | 14.5 | 25.7 | 0.00 | 0.00 | 0.00 | 83 | 1010.7 |
| 20260505152712 | 11 | 24 | 16.1 | 27.4 | 0.00 | 0.00 | 0.00 | 81 | 1010.9 |
| 20260505152212 | 11 | 49 | 12.9 | 27.4 | 0.00 | 0.00 | 0.00 | 81 | 1010.9 |
| 20260505151712 | 11 | 55 | 11.3 | 22.5 | 0.00 | 0.00 | 0.00 | 81 | 1010.9 |
| 20260505151224 | 11 | 9 | 11.3 | 20.9 | 0.00 | 0.00 | 0.00 | 81 | 1010.9 |
| 20260505150932 | 11 | 55 | 11.3 | 25.7 | 0.00 | 0.00 | 0.00 | 80 | 1011.0 |
| 20260505150211 | 11 | 34 | 12.9 | 25.7 | 0.00 | 0.00 | 0.00 | 80 | 1010.9 |
| 20260505140648 | 11 | 30 | 11.3 | 25.7 | 0.00 | 0.00 | 0.00 | 80 | 1011.2 |
| 20260505130153 | 11 | 61 | 9.7 | 20.9 | 0.00 | 0.00 | 0.00 | 81 | 1011.5 |
| 20260505124648 | 11 | 57 | 8.0 | 19.3 | 0.00 | 0.00 | 0.00 | 81 | 1011.6 |
| 20260505124409 | 11 | 41 | 8.0 | 19.3 | 0.00 | 0.00 | 0.00 | 82 | 1011.7 |
| 20260505123648 | 11 | 46 | 8.0 | 19.3 | 0.00 | 0.00 | 0.00 | 82 | 1011.7 |
| 20260505123148 | 11 | 355 | 8.0 | 19.3 | 0.00 | 0.00 | 0.00 | 82 | 1011.7 |
| 20260505122648 | 10 | 49 | 8.0 | 19.3 | 0.00 | 0.00 | 0.00 | 82 | 1011.7 |
| 20260505122149 | 10 | 47 | 8.0 | 16.1 | 0.00 | 0.00 | 0.00 | 82 | 1011.7 |
| 20260505121649 | 10 | 80 | 8.0 | 16.1 | 0.00 | 0.00 | 0.00 | 82 | 1011.7 |
| 20260505121150 | 10 | 39 | 8.0 | 17.7 | 0.00 | 0.00 | 0.00 | 82 | 1011.7 |
| 20260505120648 | 10 | 61 | 9.7 | 20.9 | 0.00 | 0.00 | 0.00 | 82 | 1011.7 |
| 20260505120147 | 10 | 35 | 9.7 | 20.9 | 0.00 | 0.00 | 0.00 | 81 | 1011.7 |
| 20260505115642 | 10 | 38 | 8.0 | 19.3 | 0.00 | 0.00 | 0.00 | 82 | 1011.8 |
| 20260505115403 | 10 | 53 | 8.0 | 17.7 | 0.00 | 0.00 | 0.00 | 82 | 1011.7 |
| 20260505114640 | 10 | 71 | 8.0 | 20.9 | 0.00 | 0.00 | 0.00 | 82 | 1011.7 |
| 20260505114140 | 10 | 41 | 9.7 | 22.5 | 0.00 | 0.00 | 0.00 | 81 | 1011.7 |
| 20260505113639 | 10 | 39 | 8.0 | 22.5 | 0.00 | 0.00 | 0.00 | 81 | 1011.8 |
| 20260505113151 | 10 | 24 | 8.0 | 17.7 | 0.00 | 0.00 | 0.00 | 81 | 1011.8 |
| 20260505112652 | 10 | 95 | 8.0 | 17.7 | 0.00 | 0.00 | 0.00 | 81 | 1011.8 |
| 20260505112137 | 10 | 60 | 8.0 | 19.3 | 0.00 | 0.00 | 0.00 | 82 | 1011.8 |
| 20260505111636 | 10 | 71 | 8.0 | 19.3 | 0.00 | 0.00 | 0.00 | 82 | 1011.9 |
| 20260505111137 | 10 | 42 | 9.7 | 19.3 | 0.00 | 0.00 | 0.00 | 82 | 1011.8 |
| 20260505110635 | 10 | 30 | 6.4 | 19.3 | 0.00 | 0.00 | 0.00 | 82 | 1011.8 |
| 20260505110413 | 10 | 71 | 6.4 | 19.3 | 0.00 | 0.00 | 0.00 | 82 | 1011.8 |
| 20260505102128 | 10 | 42 | 11.3 | 22.5 | 0.00 | 0.03 | 0.00 | 82 | 1011.8 |
| 20260505101629 | 10 | 34 | 9.7 | 22.5 | 0.00 | 0.03 | 0.00 | 82 | 1011.8 |
| 20260505101141 | 10 | 9 | 9.7 | 20.9 | 0.00 | 0.03 | 0.00 | 82 | 1011.9 |
| 20260505100627 | 10 | 44 | 9.7 | 20.9 | 0.00 | 0.03 | 0.00 | 82 | 1011.8 |
| 20260505100126 | 10 | 27 | 9.7 | 19.3 | 0.00 | 0.03 | 0.00 | 83 | 1011.9 |
| 20260505095626 | 10 | 60 | 9.7 | 19.3 | 0.00 | 0.03 | 0.00 | 82 | 1011.9 |
| 20260505095125 | 10 | 34 | 9.7 | 16.1 | 0.00 | 0.03 | 0.00 | 82 | 1011.9 |
| 20260505094624 | 10 | 51 | 11.3 | 20.9 | 0.00 | 0.03 | 0.00 | 82 | 1011.9 |
| 20260505094124 | 10 | 21 | 9.7 | 20.9 | 0.00 | 0.03 | 0.00 | 82 | 1011.9 |
| 20260505093624 | 10 | 30 | 9.7 | 17.7 | 0.00 | 0.03 | 0.00 | 82 | 1012.0 |
| 20260505093124 | 10 | 98 | 8.0 | 17.7 | 0.00 | 0.03 | 0.00 | 83 | 1012.0 |
| 20260505092625 | 10 | 37 | 8.0 | 17.7 | 0.00 | 0.03 | 0.00 | 83 | 1012.0 |
| 20260505092344 | 10 | 75 | 8.0 | 17.7 | 0.00 | 0.03 | 0.00 | 83 | 1012.2 |
| 20260505091624 | 10 | 38 | 6.4 | 17.7 | 0.00 | 0.03 | 0.00 | 83 | 1012.3 |
| 20260505091124 | 9 | 33 | 6.4 | 12.9 | 0.00 | 0.03 | 0.00 | 83 | 1012.4 |
| 20260505090624 | 9 | 41 | 6.4 | 12.9 | 0.00 | 0.03 | 0.00 | 83 | 1012.4 |
| 20260505090348 | 9 | 44 | 6.4 | 14.5 | 0.00 | 0.03 | 0.00 | 83 | 1012.5 |
| 20260505085622 | 9 | 86 | 4.8 | 14.5 | 0.00 | 0.03 | 0.00 | 83 | 1012.5 |
| 20260505085122 | 9 | 37 | 6.4 | 14.5 | 0.00 | 0.03 | 0.00 | 83 | 1012.5 |
| 20260505084622 | 9 | 34 | 8.0 | 17.7 | 0.00 | 0.03 | 0.00 | 83 | 1012.5 |
| 20260505084118 | 9 | 34 | 6.4 | 17.7 | 0.00 | 0.03 | 0.00 | 83 | 1012.5 |
| 20260505083618 | 9 | 34 | 4.8 | 11.3 | 0.00 | 0.03 | 0.00 | 83 | 1012.4 |
| 20260505083117 | 9 | 107 | 4.8 | 9.7 | 0.00 | 0.03 | 0.00 | 83 | 1012.4 |
| 20260505082616 | 8 | 26 | 6.4 | 12.9 | 0.00 | 0.03 | 0.00 | 83 | 1012.5 |
| 20260505082112 | 8 | 22 | 6.4 | 16.1 | 0.00 | 0.03 | 0.00 | 83 | 1012.4 |
| 20260505081833 | 8 | 34 | 6.4 | 16.1 | 0.00 | 0.03 | 0.00 | 83 | 1012.4 |
| 20260505081109 | 8 | 11 | 6.4 | 14.5 | 0.00 | 0.03 | 0.00 | 83 | 1012.4 |
| 20260505081051 | 8 | 28 | 6.4 | 14.5 | 0.00 | 0.03 | 0.00 | 83 | 1012.4 |
| 20260505080113 | 8 | 36 | 6.4 | 16.1 | 0.00 | 0.03 | 0.00 | 83 | 1012.4 |
| 20260505075828 | 8 | 61 | 8.0 | 17.7 | 0.00 | 0.03 | 0.00 | 83 | 1012.4 |
| 20260505075331 | 8 | 93 | 8.0 | 17.7 | 0.00 | 0.03 | 0.00 | 83 | 1012.4 |
| 20260505074819 | 8 | 58 | 6.4 | 14.5 | 0.00 | 0.03 | 0.00 | 84 | 1012.4 |
| 20260505074058 | 8 | 19 | 6.4 | 14.5 | 0.00 | 0.03 | 0.00 | 84 | 1012.4 |
| 20260505073559 | 8 | 34 | 6.4 | 16.1 | 0.00 | 0.03 | 0.00 | 84 | 1012.4 |
| 20260505073058 | 8 | 47 | 6.4 | 16.1 | 0.00 | 0.03 | 0.00 | 84 | 1012.4 |
| 20260505072556 | 8 | 48 | 6.4 | 16.1 | 0.00 | 0.03 | 0.00 | 84 | 1012.3 |
| 20260505072056 | 8 | 42 | 6.4 | 14.5 | 0.00 | 0.03 | 0.00 | 85 | 1012.4 |
| 20260505071807 | 8 | 54 | 6.4 | 16.1 | 0.00 | 0.03 | 0.00 | 85 | 1012.3 |
| 20260505071314 | 8 | 43 | 6.4 | 16.1 | 0.00 | 0.03 | 0.00 | 85 | 1012.4 |
| 20260505070546 | 8 | 56 | 6.4 | 16.1 | 0.00 | 0.03 | 0.00 | 85 | 1012.5 |
| 20260505070054 | 8 | 56 | 4.8 | 16.1 | 0.00 | 0.03 | 0.00 | 85 | 1012.5 |
| 20260505065529 | 8 | 53 | 4.8 | 16.1 | 0.00 | 0.03 | 0.00 | 85 | 1012.5 |
| 20260505065028 | 8 | 56 | 4.8 | 16.1 | 0.00 | 0.03 | 0.00 | 86 | 1012.6 |
| 20260505065018 | 8 | 76 | 4.8 | 12.9 | 0.00 | 0.03 | 0.00 | 86 | 1012.6 |
| 20260505064023 | 8 | 90 | 4.8 | 19.3 | 0.00 | 0.03 | 0.00 | 86 | 1012.6 |
| 20260505063515 | 8 | 44 | 6.4 | 19.3 | 0.00 | 0.03 | 0.00 | 86 | 1012.6 |
| 20260505063007 | 8 | 41 | 6.4 | 14.5 | 0.00 | 0.03 | 0.00 | 86 | 1012.6 |
| 20260505062508 | 8 | 32 | 4.8 | 14.5 | 0.00 | 0.03 | 0.00 | 86 | 1012.6 |
| 20260505062007 | 8 | 40 | 4.8 | 12.9 | 0.00 | 0.03 | 0.00 | 86 | 1012.5 |
| 20260505061502 | 8 | 40 | 4.8 | 14.5 | 0.00 | 0.03 | 0.00 | 86 | 1012.5 |
| 20260505061003 | 8 | 89 | 4.8 | 14.5 | 0.00 | 0.03 | 0.00 | 86 | 1012.4 |
| 20260505060503 | 8 | 41 | 4.8 | 16.1 | 0.00 | 0.03 | 0.00 | 86 | 1012.4 |
| 20260505060002 | 8 | 38 | 6.4 | 17.7 | 0.00 | 0.03 | 0.00 | 86 | 1012.4 |
| 20260505055459 | 8 | 80 | 6.4 | 17.7 | 0.00 | 0.03 | 0.00 | 86 | 1012.4 |
| 20260505054959 | 8 | 39 | 6.4 | 16.1 | 0.00 | 0.03 | 0.00 | 86 | 1012.4 |
| 20260505054509 | 8 | 40 | 6.4 | 19.3 | 0.00 | 0.03 | 0.00 | 86 | 1012.5 |
| 20260505053957 | 8 | 44 | 6.4 | 19.3 | 0.00 | 0.03 | 0.00 | 87 | 1012.5 |
| 20260505053457 | 8 | 13 | 4.8 | 16.1 | 0.00 | 0.03 | 0.00 | 86 | 1012.5 |
| 20260505052957 | 8 | 32 | 4.8 | 14.5 | 0.00 | 0.03 | 0.00 | 86 | 1012.5 |
| 20260505052458 | 8 | 46 | 4.8 | 11.3 | 0.00 | 0.03 | 0.00 | 87 | 1012.5 |
| 20260505051955 | 8 | 44 | 6.4 | 12.9 | 0.00 | 0.03 | 0.00 | 87 | 1012.4 |
| 20260505051452 | 8 | 54 | 6.4 | 16.1 | 0.00 | 0.03 | 0.00 | 87 | 1012.4 |
| 20260505050952 | 8 | 68 | 8.0 | 16.1 | 0.00 | 0.03 | 0.00 | 87 | 1012.3 |
| 20260505050714 | 8 | 53 | 4.8 | 14.5 | 0.00 | 0.03 | 0.00 | 87 | 1012.3 |
| 20260505041435 | 8 | 106 | 4.8 | 14.5 | 0.00 | 0.03 | 0.00 | 87 | 1012.0 |
| 20260505040933 | 8 | 96 | 6.4 | 14.5 | 0.00 | 0.03 | 0.00 | 87 | 1012.0 |
| 20260505040433 | 8 | 94 | 4.8 | 14.5 | 0.00 | 0.03 | 0.00 | 87 | 1012.0 |
| 20260505035933 | 8 | 28 | 4.8 | 12.9 | 0.00 | 0.03 | 0.00 | 87 | 1012.1 |
| 20260505035430 | 8 | 40 | 6.4 | 14.5 | 0.00 | 0.03 | 0.00 | 87 | 1012.0 |
| 20260505034929 | 8 | 46 | 6.4 | 14.5 | 0.00 | 0.03 | 0.00 | 87 | 1012.0 |
| 20260505034652 | 8 | 39 | 6.4 | 14.5 | 0.00 | 0.03 | 0.00 | 87 | 1012.0 |
| 20260505033928 | 8 | 53 | 6.4 | 16.1 | 0.00 | 0.03 | 0.00 | 87 | 1012.0 |
| 20260505033427 | 8 | 59 | 6.4 | 16.1 | 0.00 | 0.03 | 0.00 | 87 | 1012.0 |
| 20260505032928 | 8 | 61 | 6.4 | 14.5 | 0.00 | 0.03 | 0.00 | 87 | 1012.1 |
| 20260505032428 | 8 | 53 | 8.0 | 17.7 | 0.00 | 0.03 | 0.00 | 86 | 1012.1 |
| 20260505031924 | 8 | 32 | 9.7 | 17.7 | 0.00 | 0.03 | 0.00 | 87 | 1012.2 |
| 20260505031422 | 8 | 38 | 9.7 | 19.3 | 0.00 | 0.03 | 0.00 | 87 | 1012.2 |
| 20260505030922 | 8 | 30 | 9.7 | 19.3 | 0.00 | 0.03 | 0.00 | 87 | 1012.3 |
| 20260505030422 | 8 | 32 | 8.0 | 17.7 | 0.00 | 0.03 | 0.00 | 87 | 1012.3 |
| 20260505025922 | 8 | 46 | 8.0 | 19.3 | 0.00 | 0.03 | 0.00 | 87 | 1012.3 |
| 20260505025422 | 8 | 13 | 8.0 | 19.3 | 0.00 | 0.03 | 0.00 | 87 | 1012.3 |
| 20260505024922 | 8 | 44 | 6.4 | 16.1 | 0.00 | 0.03 | 0.00 | 87 | 1012.3 |
| 20260505024642 | 8 | 19 | 6.4 | 14.5 | 0.00 | 0.03 | 0.00 | 87 | 1012.3 |
| 20260505024144 | 8 | 41 | 6.4 | 14.5 | 0.00 | 0.03 | 0.00 | 87 | 1012.4 |